Gage, OK

2:00 AM CST on February 21, 2017 (GMT -0600)
Gage

Weather History for KGAG - May, 2013

Change the Weather History Date:

Wednesday, May 8, 2013

  Actual Average Record
Temperature  
Mean Temperature 70 °F -  
Max Temperature 89 °F 78 °F 102 °F (2011)
Min Temperature 55 °F 49 °F 33 °F (1976)
Cooling Degree Days 6    
Growing Degree Days 20 (Base 50)    
Moisture  
Dew Point 50 °F    
Average Humidity 50    
Maximum Humidity 90    
Minimum Humidity 18    
Precipitation  
Precipitation 0.04 in - - ()
Sea Level Pressure  
Sea Level Pressure 29.78 in    
Wind  
Wind Speed 16 mph (SSE)    
Max Wind Speed 29 mph    
Max Gust Speed 40 mph    
Visibility 10 miles    
Events Rain , Thunderstorm    
Averages and records for this station are not official NWS values.
T = Trace of Precipitation, MM = Missing Value Source: NWS Daily Summary

Daily Weather History Graph

Daily Weather History Graph

Search for Another Location

Airport or City:

Trip Planner

Search our weather history database for the weather conditions in past years. The results will help you decide how hot, cold, wet, or windy it might be!

Date:

Astronomy

May. 08, 2013 Rise Set
Actual Time 6:38 AM CDT 8:33 PM CDT
Civil Twilight 6:10 AM CDT 9:01 PM CDT
Nautical Twilight 5:36 AM CDT 9:35 PM CDT
Astronomical Twilight 4:59 AM CDT 10:12 PM CDT
Moon 5:45 AM CDT (5/8) 7:34 PM CDT (5/8)
Length of Visible Light 14h 50m
Length of Day
13h 54m
Waning Crescent, 2% of the Moon is Illuminated
May 8
Waning Crescent
May 9
New
May 17
First Quarter
May 24
Full
May 31
Last Quarter

Hourly Weather History & Observations

Time (CDT) Temp. Heat Index Dew Point Humidity Pressure Visibility Wind Dir Wind Speed Gust Speed Precip Events Conditions
12:53 AM 64.9 °F - 48.0 °F 54% 29.79 in 10.0 mi SSE 26.5 mph 34.5 mph N/A   Clear
1:53 AM 63.0 °F - 48.0 °F 58% 29.78 in 10.0 mi South 23.0 mph 28.8 mph N/A   Clear
2:53 AM 64.0 °F - 46.9 °F 54% 29.77 in 10.0 mi South 20.7 mph 28.8 mph N/A   Clear
3:53 AM 63.0 °F - 46.9 °F 56% 29.77 in 10.0 mi South 16.1 mph 24.2 mph N/A   Clear
4:53 AM 61.0 °F - 46.9 °F 60% 29.78 in 10.0 mi South 10.4 mph - N/A   Clear
5:53 AM 59.0 °F - 46.9 °F 64% 29.78 in 10.0 mi SSW 5.8 mph - N/A   Clear
6:53 AM 55.0 °F - 46.9 °F 74% 29.83 in 10.0 mi NE 6.9 mph - N/A   Clear
7:53 AM 61.0 °F - 48.9 °F 64% 29.84 in 10.0 mi East 8.1 mph - N/A   Clear
8:53 AM 66.9 °F - 48.0 °F 51% 29.83 in 10.0 mi ESE 11.5 mph - N/A   Clear
9:53 AM 71.1 °F - 48.9 °F 45% 29.83 in 10.0 mi SSE 9.2 mph - N/A   Clear
10:53 AM 73.0 °F - 50.0 °F 44% 29.84 in 10.0 mi SSE 6.9 mph - N/A   Clear
11:53 AM 75.9 °F - 52.0 °F 43% 29.83 in 10.0 mi SE 11.5 mph 19.6 mph N/A   Clear
12:53 PM 80.1 °F 79.9 °F 53.1 °F 39% 29.80 in 10.0 mi SSE 17.3 mph 24.2 mph N/A   Clear
1:53 PM 82.9 °F 81.8 °F 53.1 °F 36% 29.77 in 10.0 mi South 16.1 mph 29.9 mph N/A   Clear
2:32 PM 82.4 °F 81.4 °F 53.6 °F 37% 29.83 in 10.0 mi SE 16.1 mph - N/A Thunderstorm Clear
2:53 PM 82.0 °F 81.3 °F 54.0 °F 38% 29.76 in 10.0 mi SSE 15.0 mph 24.2 mph N/A   Clear
3:22 PM 84.2 °F 83.0 °F 55.4 °F 37% 29.82 in 10.0 mi SSE 15.0 mph 21.9 mph N/A Thunderstorm Thunderstorm
3:53 PM 84.9 °F 83.7 °F 55.9 °F 37% 29.71 in 10.0 mi SE 13.8 mph 21.9 mph N/A   Partly Cloudy
4:53 PM 84.0 °F 82.5 °F 53.1 °F 34% 29.69 in 10.0 mi SSE 13.8 mph - N/A   Clear
5:41 PM 86.0 °F - 37.4 °F 18% 29.75 in 10.0 mi SSW 16.1 mph 27.6 mph N/A   Clear
5:53 PM 84.9 °F - 37.0 °F 18% 29.68 in 10.0 mi SSW 13.8 mph - N/A   Partly Cloudy
6:53 PM 82.9 °F - 46.9 °F 28% 29.68 in 10.0 mi South 27.6 mph 32.2 mph N/A   Partly Cloudy
7:53 PM 77.0 °F - 51.1 °F 40% 29.68 in 10.0 mi South 28.8 mph 40.3 mph N/A   Clear
8:53 PM 71.1 °F - 50.0 °F 47% 29.69 in 10.0 mi South 12.7 mph - N/A   Clear
9:53 PM 66.9 °F - 55.0 °F 66% 29.77 in 10.0 mi Variable 5.8 mph 25.3 mph N/A   Clear
10:48 PM 62.6 °F - 57.2 °F 82% 29.86 in 9.0 mi East 12.7 mph - 0.04 in Rain , Thunderstorm Light Thunderstorms and Rain
10:53 PM 61.0 °F - 55.9 °F 83% 29.80 in 10.0 mi East 10.4 mph - 0.04 in Rain , Thunderstorm Light Thunderstorms and Rain
11:53 PM 60.1 °F - 57.0 °F 90% 29.78 in 10.0 mi NE 3.5 mph - 0.00 in Thunderstorm Clear